Theta_e
363 363 363 362 361 361 358 358 361 360 363 360 362 361 360 359 360 359 362 362 360 360 360 358 360 358 355 355 354 356 355 355 355 354 354 355 358 360 359 359 358 359 359 358 358 357 357 357 357 357 358 358 358 357 357 356 355 356 356 356 356 355 355 355 354 354 355 355 355 355 356 355 355 355 354 355 354 354 354 353 351 349 347 346 347
362 362 361 359 360 362 363 363 362 363 362 362 363 360 359 359 360 360 359 361 361 362 360 357 355 357 358 356 356 355 357 355 356 355 356 355 358 361 359 359 359 359 359 358 357 356 357 356 356 356 356 356 356 356 356 356 356 356 356 356 356 355 355 355 354 355 355 355 356 356 355 356 355 355 354 354 354 354 354 353 352 349 347 345 347
361 362 359 358 361 364 363 364 363 362 364 363 365 365 363 361 361 359 362 362 361 362 360 360 360 356 358 356 354 357 356 357 353 353 351 354 357 360 360 358 358 359 358 358 357 357 357 357 357 357 356 355 356 356 356 356 356 357 357 356 356 356 356 356 355 355 355 355 356 356 356 356 356 356 354 355 354 353 353 353 351 349 349 347 345
362 363 362 361 363 362 364 365 364 364 366 365 364 366 367 365 368 367 365 364 363 362 363 358 357 356 359 355 358 357 357 357 348 348 350 355 356 359 361 362 358 359 358 358 358 357 356 356 356 356 356 356 356 357 356 356 356 356 356 357 357 357 357 357 356 356 356 356 357 357 357 356 356 356 356 354 354 353 353 353 352 350 348 348 346
362 363 363 361 362 365 364 366 366 366 367 366 366 368 366 363 364 366 364 363 361 362 361 358 358 358 357 357 358 357 360 360 360 356 351 354 355 355 357 359 363 358 359 359 358 359 357 357 356 356 356 356 356 356 357 356 356 356 357 357 357 357 358 358 357 358 357 358 358 357 357 357 357 358 357 356 354 354 353 352 352 350 347 347 348
364 365 363 362 365 366 366 365 367 367 367 368 365 364 362 363 360 362 359 360 359 361 358 358 357 360 359 359 360 361 362 357 357 357 357 354 356 358 355 357 357 360 365 360 359 358 359 358 358 357 357 357 357 357 356 356 357 357 357 357 358 358 358 358 358 359 359 359 358 358 358 357 358 358 357 357 355 354 353 352 352 350 348 348 348
365 366 366 365 363 364 364 364 367 369 364 365 364 364 365 363 361 360 362 359 359 360 361 359 358 358 361 362 358 360 360 358 359 358 358 361 359 356 358 358 357 359 361 361 361 360 360 360 359 358 358 358 358 358 358 358 357 357 357 358 358 359 359 360 359 360 360 360 360 359 358 357 358 357 357 357 356 355 355 354 352 351 350 349 348
372 371 366 366 363 362 364 366 368 367 366 366 367 364 364 364 364 363 359 357 360 358 360 360 359 357 359 360 360 362 360 360 359 357 356 362 362 361 362 361 361 359 359 359 362 366 361 361 360 359 359 359 360 359 359 359 358 358 359 359 359 359 359 359 360 360 360 360 361 360 359 358 358 357 357 357 357 357 356 355 353 352 351 350 349
372 373 369 366 362 363 362 366 369 367 366 366 364 365 366 362 366 365 365 361 357 354 357 359 357 357 357 356 357 360 360 362 359 359 358 362 362 358 359 361 363 359 365 362 362 362 365 363 361 361 362 362 361 361 361 361 360 360 361 359 359 359 359 359 359 360 360 360 361 360 360 360 358 359 358 358 357 357 357 356 356 354 353 353 351
374 373 370 367 366 364 365 367 368 367 364 365 365 366 366 365 364 366 365 365 359 357 355 356 355 354 355 353 359 356 357 359 359 358 360 358 359 359 358 357 357 357 356 359 356 359 361 366 363 363 362 362 362 362 361 361 361 361 361 361 360 361 360 361 360 361 360 360 360 360 360 360 360 359 359 359 358 357 357 357 357 357 355 354 353
374 372 370 365 364 365 367 368 368 365 365 365 365 366 366 364 364 365 367 364 361 360 358 359 355 353 350 352 354 358 359 356 359 355 357 355 354 356 354 358 356 358 359 359 355 359 361 361 363 364 368 363 363 363 362 362 363 363 363 362 362 362 362 361 360 360 360 360 360 360 360 359 360 360 360 360 360 359 358 358 358 357 356 356 354
373 374 371 368 366 365 367 367 367 367 364 363 362 363 365 367 367 367 368 366 364 363 361 359 355 355 352 353 354 355 356 356 356 354 356 355 355 356 353 355 357 356 355 357 357 355 359 363 365 360 363 366 365 364 363 363 363 362 362 362 363 363 363 363 363 362 361 361 361 361 361 361 360 360 361 361 360 360 360 359 359 359 358 357 356
372 372 370 368 369 367 367 368 367 367 366 364 365 365 367 366 365 368 363 363 361 362 358 358 355 351 354 349 352 353 353 354 352 351 350 350 351 351 352 354 354 355 358 356 357 356 357 364 362 363 362 364 369 365 363 363 363 362 363 364 364 364 364 364 364 363 363 363 362 362 362 362 361 361 361 360 361 361 361 360 359 359 359 358 357
368 370 372 370 368 363 365 370 367 366 368 368 370 365 366 369 367 365 365 360 360 358 357 356 352 345 344 343 344 350 352 350 347 346 348 349 351 352 353 349 349 352 354 357 360 356 356 360 363 361 364 365 365 365 373 370 367 363 364 364 364 365 364 365 364 364 364 364 364 363 363 363 363 362 362 362 361 360 360 360 360 360 359 359 358
367 368 372 368 369 367 368 369 369 369 366 367 367 365 367 366 368 363 360 362 360 361 362 357 350 348 350 345 338 339 346 345 346 346 347 348 349 349 350 349 348 351 355 357 356 358 354 357 359 362 364 368 365 364 366 368 368 369 364 363 363 363 364 364 364 364 364 365 365 365 365 364 363 364 363 362 362 361 361 360 360 360 359 359 359
365 366 369 368 371 369 368 367 369 370 369 367 367 364 367 365 364 365 360 356 355 358 361 359 358 353 341 340 339 338 334 339 343 345 347 346 346 346 348 349 349 351 355 355 351 356 357 360 360 366 369 368 368 365 365 364 370 369 367 365 362 361 362 364 365 367 366 367 367 366 366 365 365 364 363 363 363 362 361 360 360 360 359 359 359
366 367 368 371 372 369 368 369 369 368 369 366 364 362 365 367 363 364 363 356 353 357 360 360 361 359 354 346 339 337 337 339 341 342 346 345 345 345 346 346 347 349 349 350 352 356 354 355 360 365 370 372 373 371 368 367 367 373 376 369 367 365 363 364 364 365 365 365 365 366 366 365 365 364 364 364 364 363 362 361 360 360 359 359 359
367 367 369 370 372 371 369 369 368 368 367 365 365 364 363 364 366 364 363 360 361 356 355 362 360 362 359 355 352 346 343 344 341 336 349 346 346 345 344 345 346 347 353 352 351 352 356 356 360 363 364 366 367 367 363 363 369 371 372 371 371 367 365 363 362 364 364 365 365 365 365 365 364 364 365 365 365 364 363 361 361 360 360 359 359
366 368 369 370 371 371 371 369 368 368 367 368 366 363 361 363 366 364 365 367 362 359 353 354 360 362 359 356 356 358 349 345 339 342 338 343 345 343 343 344 346 346 345 347 348 350 353 354 352 353 357 360 363 362 365 363 365 368 369 367 364 364 362 361 362 363 363 364 365 365 365 366 365 363 363 363 364 364 362 362 361 361 361 360 360
366 368 371 372 371 371 372 370 368 368 367 367 366 364 366 367 365 371 369 368 369 361 359 356 357 357 360 357 357 356 356 351 348 343 341 338 339 343 345 344 347 345 346 345 346 347 350 355 355 354 355 358 363 361 362 362 366 368 367 365 366 365 363 360 360 360 361 362 363 364 365 365 365 364 362 363 364 364 363 362 362 362 362 362 362
368 369 369 370 370 369 371 370 369 369 367 367 366 367 366 369 369 366 368 367 367 366 364 362 358 355 357 361 354 354 349 349 350 350 342 338 338 339 340 342 347 346 347 348 348 350 350 351 351 350 356 360 363 364 360 361 361 369 367 363 364 363 361 359 358 359 360 361 362 362 362 363 364 364 364 365 364 364 364 363 364 364 365 364 364
366 369 371 369 370 371 370 370 370 367 366 368 368 368 369 371 370 368 370 369 368 365 364 364 362 363 360 362 358 355 352 349 346 345 344 346 338 338 341 339 341 344 349 346 349 350 351 351 353 351 354 359 360 361 366 368 371 364 363 355 360 359 359 357 356 358 359 360 360 360 361 361 361 362 363 363 363 364 364 364 364 364 364 364 363
361 365 367 368 369 370 368 368 369 371 367 369 369 367 365 366 367 370 371 370 367 366 364 365 364 363 362 361 360 353 352 347 346 346 344 342 341 340 340 342 341 341 348 348 351 350 351 353 351 352 358 359 363 364 366 368 364 361 354 357 356 357 358 357 357 357 354 355 357 358 359 359 360 360 360 360 360 361 361 361 362 362 362 363 363
365 363 364 365 368 367 369 369 369 371 368 369 370 367 367 367 367 370 370 371 372 368 365 363 363 364 361 359 358 358 353 351 348 349 347 346 345 343 342 344 344 345 346 351 351 348 348 350 350 354 356 360 365 368 370 371 369 352 361 357 354 355 357 357 359 357 355 353 352 352 354 355 356 357 358 358 359 359 359 360 360 361 361 362 361
362 363 365 366 368 368 369 368 369 370 371 372 370 370 369 367 369 368 369 371 370 369 366 364 361 359 358 360 359 359 356 357 353 350 350 351 350 343 344 345 340 342 347 346 347 346 349 348 353 353 357 363 364 369 368 364 365 360 355 360 353 357 355 357 357 355 353 351 351 352 353 355 355 356 356 356 356 357 358 359 359 360 359 359 359
361 363 363 366 366 367 368 370 372 372 370 373 372 372 372 368 369 369 367 369 370 372 367 365 365 364 363 360 360 359 359 361 355 351 349 349 347 345 347 346 343 342 345 349 352 345 347 349 353 358 360 362 364 365 367 363 366 358 357 361 360 350 354 355 356 355 353 351 350 351 352 353 355 356 355 355 355 356 357 357 357 357 357 357 355
359 364 365 366 367 367 367 367 369 371 370 370 369 370 373 371 370 372 369 370 371 368 367 364 362 363 364 363 360 361 361 364 359 352 353 353 352 351 351 344 341 341 342 346 349 347 339 348 350 357 360 367 367 368 367 363 364 358 360 378 371 355 354 353 354 353 352 350 348 349 350 351 353 354 353 353 353 355 355 354 354 353 353 353 352
364 365 366 366 365 365 367 365 367 367 369 370 369 370 370 369 370 370 368 365 367 367 367 365 363 364 363 365 366 360 363 362 361 359 357 359 359 360 356 350 344 340 342 341 343 345 344 344 350 352 360 365 368 367 367 367 367 361 364 374 370 369 355 354 352 350 348 347 347 348 348 349 350 351 351 352 351 350 352 353 352 351 351 349 348
361 364 365 367 366 365 363 361 364 366 367 368 368 369 370 368 365 368 367 365 366 366 365 365 366 362 363 364 364 364 364 368 364 363 366 367 361 359 357 352 352 347 342 342 345 342 347 346 345 358 363 366 368 366 368 368 366 362 364 368 368 372 356 350 349 347 346 346 347 347 348 349 349 350 349 348 347 347 349 350 350 349 345 346 345
358 357 361 364 366 367 364 364 363 365 365 364 367 367 368 366 365 366 366 367 366 368 367 366 367 367 364 364 364 362 366 364 363 363 367 367 363 359 357 357 357 351 348 345 346 349 346 349 350 351 363 366 364 364 364 367 361 369 365 367 366 367 352 349 349 348 347 346 345 343 344 345 346 345 342 342 343 345 348 349 347 345 344 343 341
362 362 363 362 363 365 367 364 365 365 366 364 365 366 367 365 363 363 365 368 366 365 367 366 363 366 367 364 366 364 367 365 366 363 366 366 363 361 360 361 359 359 356 352 346 351 352 349 352 355 356 363 362 361 363 365 364 368 369 369 369 360 353 366 354 349 348 347 343 341 340 340 340 339 339 341 343 345 344 345 343 342 340 338 337
360 363 362 360 360 361 361 359 357 360 363 362 361 364 366 365 362 359 359 365 365 365 363 362 359 363 364 363 367 367 366 365 365 361 361 364 364 362 362 361 361 361 359 356 353 352 356 351 355 357 357 361 362 363 366 365 377 361 375 369 373 362 371 365 356 349 347 345 342 341 339 338 337 337 340 342 343 344 342 341 339 337 336 334 333
359 360 361 360 361 362 359 358 356 359 364 362 362 364 366 366 366 366 364 364 366 364 365 364 361 361 363 363 363 364 366 365 363 361 358 359 362 360 362 360 358 361 360 358 354 354 360 361 358 356 359 364 360 365 365 364 365 368 363 368 370 367 366 364 370 349 346 342 341 339 339 338 336 336 338 340 342 342 340 339 336 333 332 330 329
360 357 360 359 359 359 359 359 362 360 363 368 361 360 363 364 364 359 362 366 367 366 365 365 366 362 363 364 362 361 364 363 360 357 356 356 355 355 355 357 357 358 362 359 357 356 356 361 358 363 360 363 361 368 365 364 365 369 367 366 365 364 364 367 365 371 343 343 340 337 337 337 335 335 336 337 337 337 336 334 331 327 328 326 325
359 359 356 357 359 361 360 359 362 363 365 365 363 361 361 364 363 359 355 360 363 362 361 364 362 364 363 364 362 362 359 359 361 358 356 355 355 354 354 355 357 358 360 363 361 358 358 357 362 359 359 361 363 363 367 367 370 370 369 366 360 360 364 365 364 362 343 343 340 337 337 334 334 333 332 333 334 331 330 326 324 324 324 323 323
352 358 358 357 359 362 362 361 362 365 364 364 363 362 363 363 363 363 362 361 361 361 359 359 358 360 359 360 359 358 360 360 360 358 359 358 358 359 358 360 361 360 361 362 365 362 359 355 360 361 362 362 363 364 364 366 364 365 366 367 367 364 363 362 363 362 352 341 341 340 337 333 331 330 330 330 328 325 325 323 323 323 323 321 321
352 353 358 359 359 361 360 360 361 363 362 363 363 359 360 362 363 360 361 362 362 361 360 359 359 359 358 357 357 358 360 359 360 359 358 359 360 357 357 358 359 360 361 361 363 365 362 359 359 363 365 365 365 367 369 366 364 362 365 366 366 368 368 363 359 357 351 336 343 338 334 332 331 329 329 328 326 325 324 324 323 322 321 320 320
353 351 354 357 357 360 362 360 360 362 364 363 364 362 357 358 360 360 359 361 361 363 361 359 359 360 357 356 355 356 355 356 356 357 361 362 362 360 358 357 358 361 363 364 364 364 363 361 362 358 363 359 361 363 366 368 363 357 357 360 364 368 373 370 362 356 357 363 366 355 334 332 330 327 329 328 326 324 325 325 324 322 319 318 315
353 351 350 355 358 358 362 362 357 360 363 362 364 365 362 359 359 360 357 356 359 360 361 358 356 357 358 357 357 356 356 356 355 356 359 363 362 362 362 363 362 360 360 361 362 363 363 362 359 359 357 359 361 359 364 369 371 367 359 356 358 361 365 369 370 368 361 358 355 348 347 350 339 339 322 324 324 324 325 324 323 322 322 317 316
354 353 351 350 354 357 357 360 360 359 361 362 364 366 366 361 358 359 360 356 353 355 357 357 356 353 353 355 353 354 357 360 359 358 358 358 362 363 362 363 364 363 360 357 359 360 360 359 356 353 354 356 359 360 361 366 366 366 365 363 359 360 361 367 370 370 371 369 362 364 345 341 338 331 320 324 326 326 326 326 326 328 322 320 319
355 355 354 352 352 355 356 357 358 357 354 357 358 361 363 363 361 356 358 358 355 353 354 353 355 357 355 351 350 351 356 359 366 367 365 367 360 361 365 366 366 365 364 360 357 357 358 356 355 356 354 356 358 358 355 356 358 357 361 359 358 361 363 361 364 369 371 366 363 358 359 362 359 351 349 347 342 333 332 330 332 327 323 321 320
359 359 358 356 354 353 355 356 357 354 353 352 355 345 350 359 361 354 354 357 359 357 356 356 353 352 353 354 350 361 365 366 367 362 356 357 359 358 360 366 367 367 364 362 360 358 358 355 352 351 350 349 349 353 351 353 358 363 361 362 359 359 361 361 362 365 369 368 362 362 362 363 360 362 363 361 352 348 354 346 343 333 326 322 322
360 361 358 356 355 354 353 354 355 354 352 349 342 335 336 341 355 358 357 357 360 361 358 358 358 354 352 353 354 358 367 363 365 354 353 350 350 349 350 354 361 369 365 361 360 359 356 355 355 353 350 350 351 353 351 348 349 353 356 360 358 359 358 356 353 361 370 372 368 364 364 367 368 364 365 361 358 357 356 350 328 327 323 322 321
361 359 357 357 358 355 353 354 353 354 355 344 332 331 333 333 342 354 352 354 354 356 359 356 355 355 355 352 351 350 355 361 362 366 359 349 346 346 345 346 348 349 351 364 366 362 362 358 355 354 352 351 353 357 354 350 352 355 360 361 360 358 358 357 357 356 367 375 369 364 360 368 370 366 364 362 360 361 348 331 324 324 322 321 321
358 359 360 357 358 357 356 355 353 354 354 341 330 328 330 330 331 344 351 349 349 350 353 356 357 358 357 355 354 353 350 367 364 363 369 368 348 342 344 345 345 344 340 339 343 362 366 364 362 359 358 358 358 358 358 358 363 360 359 356 358 359 359 357 358 359 366 373 368 363 357 361 363 362 362 364 364 360 334 327 324 324 322 321 321
359 357 357 358 358 359 358 357 357 355 355 343 329 325 326 326 328 335 353 350 349 349 351 353 354 356 359 359 357 356 357 358 362 363 364 365 370 367 361 361 362 359 345 338 337 339 349 360 362 360 363 366 362 364 366 366 363 360 358 355 358 357 358 359 365 367 370 369 364 360 357 358 358 356 358 363 364 360 355 332 322 323 323 321 321
357 358 357 358 358 358 357 357 356 355 354 337 327 322 322 322 325 331 352 350 350 351 351 353 355 355 358 360 361 360 361 361 361 363 365 365 365 365 370 369 367 365 367 364 361 359 359 358 360 362 364 367 368 368 370 370 367 367 365 365 365 365 365 366 365 366 366 370 370 364 355 357 361 357 358 360 361 362 356 322 321 322 322 320 320
356 356 358 359 358 357 357 357 355 355 356 333 326 322 319 320 323 342 350 352 351 351 352 353 354 357 359 359 361 361 363 363 361 349 358 366 366 365 365 366 368 367 366 364 351 354 364 363 363 362 360 362 353 376 381 370 367 368 369 365 366 365 362 358 356 357 353 356 364 363 358 358 363 356 358 359 362 361 356 348 322 322 321 320 320
354 353 356 357 360 359 358 358 357 357 357 341 324 319 318 318 325 348 351 351 352 352 352 354 355 356 358 362 362 360 360 364 354 336 339 353 362 362 363 364 365 363 361 364 348 339 340 338 338 339 338 335 333 329 328 329 356 362 365 361 358 358 354 352 354 353 352 352 353 365 360 355 360 359 356 358 362 361 360 358 336 322 319 319 319
355 353 355 356 358 360 359 359 358 357 358 348 323 318 316 316 331 350 353 352 353 354 354 356 356 357 359 359 365 363 363 363 344 331 333 351 361 361 360 360 361 361 362 362 364 365 335 334 335 335 335 335 335 333 333 332 331 343 361 356 357 354 353 354 350 353 353 357 356 357 355 354 358 359 356 359 362 362 360 361 346 331 320 317 315
357 358 357 356 356 359 359 359 355 356 359 351 324 318 316 314 330 353 353 354 354 354 354 355 358 358 359 359 358 356 359 357 336 328 329 347 362 362 361 359 357 358 359 365 364 364 368 365 364 361 357 347 355 360 360 339 337 344 357 360 360 354 351 350 350 351 351 353 357 362 356 357 356 356 355 353 351 354 361 360 350 344 338 338 332
Wind_Speed
6 6 5 6 5 5 5 5 4 5 4 4 4 4 4 4 4 4 4 4 4 5 5 5 5 5 5 5 5 5 4 4 4 4 5 5 6 8 8 6 5 5 4 4 4 4 3 3 2 2 3 2 2 1 1 0 1 2 3 3 4 4 5 5 6 7 7 7 8 8 7 5 5 5 6 6 6 5 5 4 4 5 4 4 4
5 5 6 6 5 5 5 5 5 3 4 4 4 3 4 4 4 4 4 4 4 4 3 4 5 5 4 5 4 6 4 4 4 4 4 5 5 7 9 7 6 5 4 3 3 3 3 2 2 2 1 2 1 1 2 2 2 3 3 4 5 5 5 5 6 6 7 7 8 7 6 5 4 5 5 5 4 4 4 3 3 3 3 3 3
5 5 6 5 5 4 5 5 4 5 4 5 4 4 3 3 3 3 3 4 4 3 3 4 4 5 5 4 5 4 4 3 5 4 5 4 4 5 8 8 7 6 4 3 2 1 2 2 1 1 1 1 1 2 2 3 3 4 5 5 6 6 6 6 6 7 6 6 5 5 5 5 4 4 4 3 3 3 3 3 3 3 2 2 2
5 5 5 4 4 4 4 4 4 4 4 4 4 4 4 4 3 2 2 2 3 3 3 3 4 5 4 4 4 4 4 3 4 5 4 4 3 4 4 7 8 6 5 3 3 2 1 1 0 1 1 2 2 3 3 4 5 5 6 6 7 7 7 7 7 7 7 7 6 6 5 5 5 4 4 3 2 3 3 2 2 3 1 2 2
4 4 4 4 4 3 4 4 4 4 4 4 4 3 3 4 4 2 2 3 3 4 3 4 5 4 4 5 4 4 3 3 3 4 4 5 4 3 3 3 6 9 7 6 4 3 3 3 2 2 2 3 3 3 4 5 5 6 6 7 7 8 8 8 8 8 8 7 6 6 6 6 6 5 5 4 4 3 4 3 2 3 3 2 3
4 3 3 4 4 4 4 4 4 4 4 3 3 3 3 2 3 3 2 2 3 3 3 4 4 3 4 4 3 3 3 3 3 4 3 4 4 3 3 3 2 3 6 9 7 6 4 4 4 3 4 4 4 5 5 6 6 7 7 7 8 8 8 8 9 8 7 6 7 6 6 6 6 5 5 5 5 4 5 4 4 5 3 4 4
4 3 2 3 4 4 4 4 4 3 4 3 2 3 3 3 2 3 2 3 3 3 3 3 4 4 3 3 3 3 2 3 3 3 4 4 2 4 3 2 2 2 2 3 10 9 7 6 5 5 5 5 5 6 7 7 7 7 8 8 8 9 9 9 9 8 7 6 7 7 7 6 6 6 6 6 5 5 6 6 7 5 5 5 5
4 2 2 2 3 4 4 4 4 3 3 3 2 3 3 2 2 2 2 3 1 3 2 3 3 3 3 2 3 2 2 3 2 2 4 2 3 3 2 2 2 2 1 0 1 7 11 9 7 7 7 7 7 8 8 8 8 9 9 9 9 9 9 9 8 8 7 7 8 9 8 7 7 7 7 7 7 6 6 7 7 6 6 7 7
3 2 1 2 3 2 4 4 3 3 3 3 2 2 2 4 2 2 2 1 1 3 3 2 2 2 3 3 3 2 2 2 2 2 3 2 1 2 2 3 2 2 3 1 1 2 11 10 10 9 9 9 9 10 9 9 9 10 9 9 9 9 9 8 8 9 9 9 9 9 9 9 8 8 8 8 8 7 7 8 8 8 8 8 9
3 2 1 1 2 2 3 3 3 2 2 2 2 2 2 2 3 1 2 1 1 2 2 2 2 2 2 3 2 2 2 2 2 1 1 2 2 1 1 1 2 2 1 1 1 1 2 10 11 11 12 12 12 11 11 11 11 11 11 10 10 10 9 9 9 9 9 9 9 9 9 9 9 9 9 9 9 9 9 9 9 9 10 10 10
3 2 2 2 2 3 2 2 2 2 2 2 3 3 2 2 2 3 1 1 2 2 3 1 2 2 2 3 3 2 1 1 0 1 1 1 3 0 2 2 2 3 2 1 2 2 0 1 3 4 8 15 12 12 12 12 12 12 12 12 11 11 11 10 10 9 10 9 9 9 9 9 9 10 10 10 11 10 10 10 11 11 12 11 11
4 3 2 1 2 3 3 2 2 2 1 1 2 2 2 3 3 1 1 1 1 1 1 1 2 2 2 1 2 1 1 1 1 1 2 2 3 1 1 3 3 2 2 3 1 0 1 0 1 2 1 9 13 11 12 12 12 12 13 12 12 12 11 11 11 11 11 10 10 10 9 10 10 10 11 11 11 11 11 11 12 12 12 13 13
4 4 3 2 1 2 2 2 2 2 1 2 3 3 2 2 2 0 1 1 1 1 2 2 2 1 1 0 2 1 3 2 0 2 2 2 3 3 3 2 2 3 2 1 0 0 1 2 1 1 1 1 8 13 12 12 12 12 13 12 12 12 12 12 12 11 11 12 12 10 9 9 9 10 11 11 11 12 12 12 12 12 13 14 14
4 3 2 3 3 3 3 3 2 2 1 1 2 1 1 0 0 1 1 1 1 2 3 2 0 2 2 1 2 3 2 3 3 4 3 3 4 3 3 1 2 2 2 2 2 2 3 2 1 1 2 2 3 1 7 9 11 13 12 13 13 13 12 12 12 12 12 12 12 11 11 11 11 11 11 12 11 12 11 12 12 12 13 13 14
4 4 3 3 2 3 3 3 2 2 2 2 2 1 1 1 1 1 0 2 0 1 1 2 2 2 1 1 2 4 1 2 2 3 2 4 2 3 1 2 3 2 1 1 2 1 1 1 1 1 1 3 2 2 2 3 1 10 11 11 11 12 12 12 12 12 12 12 12 12 12 11 12 12 12 12 12 12 12 12 12 12 12 13 13
5 5 4 3 3 3 3 3 3 2 1 1 1 1 1 2 2 2 1 2 2 2 1 1 4 2 1 2 1 1 4 4 3 2 3 3 1 2 3 2 4 2 1 3 1 1 0 1 1 2 3 2 3 3 3 3 4 8 11 11 12 11 13 13 12 12 12 12 12 11 12 12 12 12 12 12 12 12 12 12 12 13 13 13 13
5 5 4 4 3 3 3 3 3 3 2 2 2 2 1 2 1 1 1 2 1 1 1 1 2 3 3 1 2 3 3 2 3 2 3 2 2 3 5 2 2 2 2 1 2 1 2 1 1 2 3 3 3 3 3 2 2 3 7 12 12 11 11 12 12 12 12 12 12 12 11 11 12 12 12 13 12 12 12 12 12 13 13 13 13
5 5 5 4 4 3 3 3 4 3 3 1 1 1 2 2 2 1 1 1 3 1 1 1 1 1 1 1 3 3 2 2 2 2 2 2 1 2 3 1 2 2 0 2 3 3 3 2 2 2 2 2 1 2 2 2 2 2 3 1 9 9 8 10 11 11 11 12 12 12 13 11 11 12 12 12 13 12 12 12 12 13 13 13 13
6 6 5 5 4 4 4 3 3 3 3 2 3 3 2 1 1 1 1 2 0 1 1 1 2 1 1 0 1 1 1 2 1 1 2 1 4 2 4 2 0 2 2 1 2 1 2 2 1 2 1 0 1 1 2 2 2 4 3 4 5 6 8 9 10 11 11 12 12 12 13 12 12 12 12 12 12 12 12 12 12 12 13 13 13
4 5 5 5 4 4 4 3 3 2 3 3 2 1 2 1 1 1 1 0 0 1 1 2 1 1 1 1 1 0 2 2 2 2 1 0 1 2 1 3 1 4 2 2 4 4 3 0 0 2 1 1 1 1 2 2 2 3 3 7 6 6 7 8 8 9 10 11 12 12 12 13 13 12 12 12 11 12 12 12 12 12 12 13 13
5 5 5 5 5 4 4 4 3 3 3 3 3 2 2 2 2 1 1 1 1 0 1 1 2 1 1 1 2 2 2 2 1 2 2 2 0 1 1 1 1 3 3 2 3 2 2 3 2 1 1 1 1 1 2 2 2 1 3 6 3 4 6 7 8 9 10 11 12 12 12 13 13 14 13 12 12 12 11 11 12 12 13 12 12
6 5 5 5 5 5 5 5 4 4 4 3 2 2 2 3 3 2 1 1 1 2 2 1 2 2 1 1 1 1 1 1 3 2 1 1 2 2 0 1 1 2 2 4 4 3 3 2 2 2 2 1 1 0 1 2 1 3 5 4 4 5 7 8 8 9 9 10 11 12 12 13 13 13 13 13 12 12 12 11 11 12 12 12 12
6 6 6 6 6 5 5 5 4 3 3 3 4 3 4 4 4 3 3 3 2 2 2 2 2 1 2 1 2 2 2 1 2 2 2 1 2 3 2 4 5 1 2 4 3 2 0 1 2 3 1 2 2 2 2 2 2 5 5 7 6 7 7 7 8 8 9 9 10 11 11 12 12 12 13 12 12 12 12 12 12 12 12 12 11
5 5 6 7 6 5 5 4 4 4 4 4 3 3 3 3 3 3 3 4 2 2 2 1 2 1 3 2 2 2 1 3 2 3 3 2 2 3 2 1 2 2 1 1 2 3 2 1 1 2 2 3 2 3 1 2 4 4 6 2 4 5 6 6 7 8 8 9 9 9 9 10 11 11 11 11 11 11 11 11 11 12 12 12 11
6 6 6 7 6 5 5 5 5 5 4 3 3 3 3 2 3 4 3 4 4 4 3 3 2 3 2 2 2 2 1 2 2 3 1 1 2 3 4 4 3 1 3 3 3 3 1 2 2 2 2 1 2 2 3 2 3 4 4 4 5 5 5 6 7 7 8 8 9 9 9 9 10 10 10 10 10 10 10 10 10 11 11 11 11
7 6 5 7 6 6 6 6 6 5 5 5 4 4 4 4 3 4 4 4 3 4 3 3 3 3 3 3 3 2 3 1 2 3 4 3 2 1 2 4 5 2 1 1 2 3 2 1 2 2 1 3 3 3 3 5 2 5 3 6 5 8 5 5 5 7 7 8 8 9 9 9 9 9 9 9 9 9 9 9 10 10 11 10 10
7 6 6 6 6 6 7 7 7 6 6 6 5 5 4 5 4 4 4 3 4 4 4 4 3 3 3 3 3 3 2 2 2 2 2 1 1 2 2 3 3 4 2 0 1 0 3 1 0 3 2 2 3 2 3 4 4 3 5 5 2 8 6 4 5 5 7 7 8 8 8 8 8 8 8 8 8 9 9 8 8 9 9 9 9
6 6 7 7 7 7 7 7 7 7 7 7 6 5 6 5 5 5 6 4 4 5 5 4 4 4 4 3 3 4 2 2 2 1 1 1 1 1 2 3 3 3 4 2 3 1 0 1 3 1 1 3 3 3 1 6 1 7 7 5 4 2 8 3 3 5 7 7 7 8 7 7 7 7 7 7 7 7 7 7 7 7 7 7 7
6 7 7 7 7 7 7 7 7 7 7 7 7 6 5 6 6 5 6 6 5 5 5 5 4 4 4 4 4 3 3 2 3 2 1 2 2 2 2 3 3 3 4 3 3 4 2 3 3 3 1 2 3 4 3 4 4 3 6 5 5 5 5 5 5 5 6 6 6 6 6 6 6 5 5 5 5 5 6 6 5 5 6 6 7
8 7 7 8 7 7 7 7 6 7 7 7 7 7 7 6 6 6 6 5 5 4 5 5 5 4 4 4 4 4 3 3 3 3 2 3 3 3 3 2 2 4 4 5 5 5 3 2 5 1 2 2 4 3 2 5 8 4 5 6 6 4 5 9 7 6 4 4 4 5 4 4 5 4 4 4 3 4 4 4 5 6 7 7 8
7 7 7 8 8 7 7 8 7 7 7 7 7 7 7 7 6 6 6 6 5 6 5 5 5 5 4 5 3 4 3 3 3 3 3 4 4 3 3 3 3 4 4 4 6 3 4 5 4 4 5 3 4 5 5 5 3 1 6 6 5 5 9 10 10 8 4 1 2 2 3 3 3 3 3 3 3 3 4 5 6 7 7 7 8
9 9 9 9 9 9 9 9 8 8 8 8 8 7 7 7 7 7 6 7 7 6 6 6 5 5 5 6 5 4 4 4 4 4 4 4 4 4 4 4 4 4 4 5 6 7 5 6 5 5 6 5 4 5 5 5 0 9 4 6 5 6 7 5 11 9 9 4 2 1 2 2 2 2 2 2 4 6 6 6 6 7 6 6 7
9 9 10 10 9 9 9 8 9 8 7 7 7 6 7 7 7 7 6 6 7 6 6 6 6 5 6 6 6 6 5 6 5 5 4 4 5 5 5 5 5 4 4 5 6 7 6 5 6 6 5 5 5 4 6 6 6 5 7 5 6 6 6 5 1 11 10 8 5 2 1 2 2 1 2 4 5 5 6 6 6 6 5 5 6
10 10 10 10 10 10 10 9 9 8 8 8 8 7 7 7 8 7 7 8 8 7 6 6 6 6 6 7 7 7 7 7 7 7 6 5 5 6 5 5 5 5 4 5 6 6 7 5 6 5 6 4 6 4 5 7 7 6 7 6 5 5 4 4 6 5 10 10 7 3 3 2 2 3 4 5 5 5 4 5 5 5 4 4 4
10 10 11 11 10 10 10 9 9 9 9 9 8 8 8 8 8 8 7 8 8 8 8 8 7 7 7 7 7 7 6 7 7 7 7 6 6 6 6 4 5 5 5 5 6 7 8 7 6 7 5 4 6 6 6 6 6 6 6 6 6 5 4 5 5 1 12 12 9 6 4 4 5 5 6 6 6 6 6 6 5 4 3 3 3
11 10 11 11 10 10 10 10 10 9 9 9 9 9 9 9 9 9 8 8 7 8 8 7 7 7 7 7 7 7 7 7 7 6 6 6 6 6 6 6 6 6 5 6 6 6 7 8 6 6 5 6 6 6 6 6 6 5 5 6 6 6 5 6 5 5 9 13 11 10 9 8 7 7 7 6 6 6 6 4 3 2 1 1 4
12 11 10 11 11 11 11 11 11 11 10 10 10 10 9 9 10 9 9 9 9 9 8 8 8 7 7 8 7 7 7 7 7 8 7 7 7 7 7 6 6 6 5 6 6 6 7 8 7 6 6 7 6 7 6 6 6 6 5 6 6 6 5 5 6 5 6 15 12 10 10 9 8 8 8 7 6 5 5 3 2 1 0 2 4
13 12 11 10 11 12 12 11 11 11 10 10 11 11 11 11 10 10 9 9 9 9 9 9 9 9 9 9 8 8 8 8 8 7 7 7 7 8 8 7 6 6 6 7 7 7 7 8 8 8 6 7 6 6 6 6 6 6 6 6 6 5 4 5 6 5 5 3 5 6 5 7 8 10 9 9 6 5 5 5 4 3 2 4 5
13 13 13 12 11 12 12 12 12 11 11 11 10 11 11 10 10 10 10 10 10 9 10 10 10 10 10 9 9 9 9 9 9 9 8 8 8 8 8 7 7 7 7 7 7 8 8 8 8 8 7 7 6 7 5 5 6 6 7 6 6 4 4 5 5 5 5 5 1 8 4 4 11 7 10 9 9 7 6 7 6 3 3 3 4
13 14 14 14 12 12 12 12 12 11 11 11 11 11 11 11 11 11 11 11 11 11 11 10 11 11 10 10 10 10 10 9 9 9 8 8 7 8 7 7 7 8 8 7 7 8 8 8 8 7 7 6 6 7 7 6 7 6 6 5 6 5 6 5 5 5 4 4 6 3 7 9 8 8 10 8 10 10 8 8 8 5 3 4 4
11 13 13 14 13 13 12 12 12 12 12 12 11 11 11 12 12 12 12 11 12 11 11 11 11 11 11 11 11 11 10 10 10 8 8 5 7 8 7 7 7 8 8 8 7 8 8 8 8 7 8 7 7 7 7 6 7 6 4 5 6 6 6 6 5 5 4 5 4 4 4 3 6 8 7 7 7 10 10 12 5 8 6 2 3
11 10 11 12 13 13 12 12 12 12 12 11 11 14 13 11 11 11 11 11 11 11 11 11 11 12 12 11 11 12 9 9 10 11 12 11 9 10 7 7 8 8 8 8 8 7 8 8 8 8 9 9 8 7 7 7 6 6 7 6 6 6 6 7 6 5 3 5 5 5 6 5 5 4 4 6 7 8 4 8 2 4 5 1 1
11 10 10 12 13 13 13 13 13 12 12 12 14 15 16 15 12 11 10 10 11 11 12 11 11 12 12 12 12 11 10 11 12 14 14 14 14 14 14 13 10 8 8 9 9 8 8 8 8 8 9 9 9 9 8 8 7 6 6 5 6 6 6 7 7 5 3 3 3 6 6 5 5 5 5 5 4 3 5 3 9 7 4 2 1
11 11 12 12 12 13 12 13 14 13 13 13 14 16 17 17 15 13 12 11 11 11 12 12 12 12 12 12 12 11 10 12 12 12 14 15 15 15 15 14 15 16 14 10 8 8 8 8 8 9 9 9 8 8 8 7 6 5 5 6 6 7 8 7 7 7 1 3 4 6 7 6 5 6 6 6 4 5 3 9 9 7 4 3 2
11 11 12 12 12 13 13 13 14 14 13 14 14 16 16 17 17 15 13 13 13 13 12 12 12 11 11 10 11 10 10 12 12 11 10 12 15 17 16 16 15 15 15 16 15 12 9 9 9 10 9 8 9 9 8 7 5 7 6 7 7 7 7 8 8 7 6 3 6 7 8 6 6 6 7 4 5 5 6 9 9 7 5 5 3
12 12 13 14 13 12 13 13 13 13 14 13 15 16 17 17 17 14 14 15 14 14 13 13 12 12 12 11 10 10 11 10 10 11 11 11 9 10 11 11 12 14 16 18 17 17 15 12 11 11 10 9 9 9 8 7 7 7 7 8 7 8 8 8 8 9 8 6 7 7 8 7 6 6 6 3 5 4 4 10 12 9 7 6 5
12 12 13 13 13 13 14 14 13 14 13 15 14 16 17 18 17 14 13 13 13 14 14 14 13 13 12 11 12 12 11 11 10 11 11 11 10 10 10 11 12 12 12 13 14 13 13 14 15 15 13 12 11 11 9 8 9 8 8 8 8 7 8 9 10 9 9 7 7 5 7 7 6 7 6 4 5 5 5 9 11 10 8 6 5
11 11 11 11 13 13 14 14 14 14 14 15 15 15 16 17 16 10 12 12 13 13 13 14 13 12 13 13 12 13 12 12 11 12 11 10 10 11 11 11 11 11 11 12 12 13 13 13 14 14 14 13 9 8 6 6 6 6 6 8 8 8 8 8 9 8 8 6 6 6 7 7 6 7 7 7 4 5 5 4 12 10 9 7 6
12 12 12 11 11 12 14 13 14 14 14 14 15 17 17 17 13 10 11 12 12 14 14 14 13 13 13 13 14 13 13 13 12 13 14 12 11 11 11 11 11 11 11 10 14 17 16 16 15 15 14 13 11 10 9 6 5 5 6 7 9 8 8 9 9 8 8 7 4 6 6 8 6 6 7 7 3 5 5 4 7 9 9 8 6
12 12 11 11 12 12 13 14 14 14 15 14 16 17 18 18 16 12 11 12 12 12 13 14 13 13 14 16 15 14 13 13 12 14 15 14 13 12 12 12 13 13 12 10 8 11 19 18 19 18 17 15 13 13 12 11 10 5 8 10 9 8 9 9 9 8 8 7 7 8 7 8 7 6 8 7 4 5 6 3 7 7 8 7 8
12 11 11 11 12 12 13 14 13 15 15 14 15 17 18 18 16 12 12 11 12 13 13 13 13 13 14 13 17 17 15 14 12 14 16 14 13 12 13 12 13 14 12 9 11 10 9 11 11 12 12 14 13 11 12 16 15 12 11 12 10 10 10 10 10 8 9 8 8 5 6 7 7 7 7 7 8 6 2 1 6 5 6 6 6
Wind_Direction
114 113 120 114 124 125 117 100 95 96 97 82 79 83 80 79 79 81 71 79 95 103 101 98 107 97 97 109 101 96 90 88 87 86 80 104 114 122 124 115 105 93 93 75 76 77 91 111 96 114 97 98 109 133 260 270 315 320 320 324 325 334 335 339 346 351 357 352 350 357 13 15 8 24 17 29 32 35 44 45 40 50 44 30 26
113 113 114 121 121 118 116 110 103 100 100 99 96 94 99 100 95 80 83 89 87 81 88 93 93 95 92 98 105 101 109 105 102 97 101 101 100 120 129 129 120 117 109 102 74 66 70 91 86 45 62 98 176 195 229 269 303 306 309 316 313 318 327 331 331 344 343 342 354 350 356 352 6 2 12 20 19 30 32 39 18 40 55 38 13
110 119 123 128 122 119 106 114 120 104 104 106 96 89 83 75 70 89 95 83 82 86 87 98 104 107 101 101 106 105 91 107 129 134 119 97 102 114 131 139 139 143 138 136 121 125 60 41 46 6 344 307 322 270 308 279 297 305 306 306 309 314 322 319 321 329 330 338 344 339 335 333 346 340 352 7 1 5 18 29 355 2 96 27 337
112 125 123 127 120 113 109 103 99 103 89 84 100 102 98 98 98 66 83 91 97 95 101 100 94 101 113 102 98 100 111 120 101 87 89 101 118 121 128 140 152 151 161 147 165 167 188 133 288 263 301 293 311 314 290 293 285 298 301 296 299 305 305 309 309 317 324 329 336 331 324 320 332 321 322 324 330 332 330 4 339 327 355 321 304
120 119 130 120 109 106 104 102 102 103 97 96 102 125 129 136 122 147 113 111 98 108 132 112 96 91 101 101 96 98 110 109 99 115 100 121 124 118 115 125 139 159 161 172 182 201 197 213 232 246 261 278 276 290 286 282 289 285 287 286 288 295 301 302 312 313 316 327 323 322 323 320 321 320 311 308 307 317 316 326 323 302 314 299 274
129 131 128 122 124 113 101 103 99 99 110 129 128 110 93 80 107 108 87 86 91 77 83 87 100 102 96 103 103 98 104 97 99 100 121 91 93 118 122 125 134 135 159 172 186 197 218 220 229 234 247 255 258 262 273 271 271 271 275 282 282 286 295 303 303 307 314 306 313 316 315 311 310 313 309 303 302 292 290 288 274 304 271 270 265
120 123 110 118 130 120 118 106 96 114 110 96 105 106 110 108 60 71 97 102 85 78 60 76 85 93 73 74 83 89 86 89 76 97 102 99 99 85 79 94 106 129 153 168 179 192 196 211 223 241 242 253 258 258 260 270 269 274 277 289 297 294 294 296 298 303 305 294 298 301 301 299 300 300 302 300 300 288 277 281 287 288 265 262 263
120 111 132 123 115 125 111 105 125 123 99 110 129 112 96 80 77 81 71 61 86 108 98 87 79 81 90 103 97 90 92 84 105 84 84 96 91 111 120 115 125 92 54 160 126 162 189 198 218 228 241 244 252 256 260 264 272 274 281 280 283 285 292 297 299 302 300 292 287 292 288 296 293 294 290 296 294 293 285 283 275 276 254 263 260
117 103 118 115 107 121 120 119 123 102 126 136 115 99 126 109 99 51 55 92 64 89 101 93 91 118 125 103 91 68 71 68 74 75 85 101 148 131 136 124 128 174 189 174 175 145 180 196 207 225 232 240 240 247 251 258 263 273 276 276 275 279 281 284 286 282 284 284 286 289 291 291 290 281 283 284 289 286 285 275 274 264 258 262 270
124 126 49 76 89 81 88 105 109 107 119 124 94 102 108 90 101 70 56 330 68 89 90 78 75 73 76 96 77 79 99 104 82 112 123 106 136 128 145 111 155 127 92 39 43 150 138 183 202 212 224 230 234 238 243 247 253 257 259 263 266 271 275 272 270 268 271 280 281 284 285 285 281 272 266 267 273 277 277 277 268 260 270 274 273
131 153 167 149 124 109 116 98 104 106 133 153 125 89 69 68 59 95 80 15 24 26 53 45 64 40 81 78 100 89 37 81 131 90 51 20 66 173 140 141 119 144 126 192 168 151 144 61 182 200 201 210 224 231 237 244 246 248 251 256 262 264 269 272 273 275 274 274 277 278 281 281 276 267 262 262 263 267 268 267 268 266 271 268 269
156 157 170 159 150 137 117 134 94 106 111 82 96 119 89 90 71 57 71 156 120 340 72 17 69 59 51 117 92 98 104 49 166 164 167 164 131 71 166 139 139 106 134 179 116 15 97 104 297 259 296 182 204 219 232 240 242 244 247 252 255 258 260 262 265 268 271 274 273 274 271 268 268 267 263 260 260 259 258 256 256 259 264 267 266
164 168 167 160 157 117 132 108 133 116 128 87 70 63 68 55 82 352 36 39 91 198 92 18 15 78 66 325 133 177 134 132 147 173 149 137 123 153 116 155 128 145 143 98 13 241 160 176 230 282 266 26 192 204 218 227 234 238 243 246 248 251 254 257 260 263 264 267 270 270 268 267 264 265 263 261 258 255 251 250 252 254 256 263 263
170 172 173 178 154 152 151 130 126 118 87 63 83 123 99 208 76 139 240 34 83 346 51 319 249 40 31 67 91 87 59 168 184 122 136 119 136 131 111 84 118 118 123 123 182 192 192 168 204 290 329 268 309 225 198 212 219 224 231 235 242 246 249 253 258 260 262 264 267 267 266 265 264 261 260 258 258 258 256 257 253 252 255 255 256
184 182 181 180 170 151 157 144 148 130 164 165 150 167 173 171 218 355 53 179 182 111 88 333 29 16 33 242 109 131 121 122 82 98 88 108 127 114 62 103 99 125 112 219 164 171 30 10 8 291 273 278 282 275 266 249 247 182 211 225 235 243 248 251 254 259 260 262 264 264 264 262 264 261 261 260 261 259 259 259 258 255 254 253 252
187 189 182 181 175 171 151 150 156 149 170 164 153 171 148 200 200 122 295 279 143 93 64 59 344 3 57 4 109 152 127 104 124 115 128 103 67 115 137 164 133 76 147 252 112 36 350 230 223 227 243 261 274 277 281 312 140 184 205 219 224 232 243 249 253 257 261 262 262 261 260 259 257 257 260 261 260 259 261 261 259 258 257 255 252
183 194 193 176 182 174 160 158 161 166 170 174 187 169 182 132 90 199 278 333 16 90 91 31 65 5 359 320 140 136 70 50 79 39 341 119 76 98 96 258 83 81 271 344 352 260 269 160 194 224 233 242 243 256 284 287 235 227 210 211 221 224 231 242 252 259 262 264 266 265 264 264 262 261 259 261 260 261 262 262 262 261 260 260 258
189 192 194 181 179 174 181 173 171 172 184 221 103 133 190 233 133 285 142 163 337 306 88 97 43 49 340 356 9 15 14 3 290 98 296 349 177 135 98 26 88 130 209 232 190 220 172 213 160 215 211 236 274 284 301 286 255 242 263 146 193 217 226 237 251 260 264 266 268 268 267 265 266 265 263 265 268 269 271 269 267 265 265 264 263
184 190 188 191 181 176 181 193 178 174 173 179 195 224 141 123 94 102 356 46 318 328 298 138 66 244 196 308 110 310 14 329 35 315 118 28 340 330 100 91 359 118 154 195 158 157 79 7 309 347 87 279 285 294 269 267 254 241 248 255 224 230 241 243 250 257 265 271 274 275 274 271 271 272 273 275 273 273 275 275 273 271 271 271 270
194 176 198 187 190 180 185 194 191 181 175 192 212 232 70 89 92 73 46 310 337 301 321 28 288 101 47 330 159 49 340 283 301 350 272 117 123 333 61 56 37 69 47 61 55 59 65 360 83 192 137 112 214 260 280 286 293 270 235 189 214 227 244 253 259 261 268 276 280 279 278 279 278 279 280 281 279 280 281 281 280 279 279 278 276
205 187 195 198 191 192 185 193 189 195 200 202 205 151 175 129 148 167 186 184 226 73 273 319 279 150 126 248 313 278 220 257 141 257 318 342 312 104 68 72 51 70 44 9 41 44 45 70 48 326 127 132 204 242 272 303 293 280 279 136 193 245 262 269 271 272 278 279 284 286 285 285 285 286 288 286 285 284 284 284 284 286 286 284 282
189 204 191 206 201 196 198 193 200 202 215 212 187 167 173 175 184 201 171 208 178 215 226 233 292 335 298 302 280 283 288 250 244 213 133 259 276 310 270 104 95 76 346 33 351 25 7 35 222 133 55 58 31 325 337 288 304 268 68 30 299 281 279 280 277 277 277 281 284 287 289 288 289 290 291 293 294 294 294 292 290 288 288 287 286
193 183 200 203 201 208 211 193 212 186 219 214 212 208 187 185 190 169 189 212 196 210 247 240 255 271 274 267 264 246 226 235 293 347 299 254 316 308 323 23 346 12 56 8 318 326 45 217 345 66 28 47 35 12 6 6 313 38 338 283 271 273 279 279 280 279 281 281 285 289 292 294 296 297 298 299 299 299 299 297 295 293 292 291 293
206 189 195 199 194 204 217 211 208 211 205 222 219 217 216 177 178 178 192 196 207 227 267 317 292 247 276 259 255 264 216 231 236 186 217 291 315 300 297 301 284 339 31 7 300 342 322 76 39 62 34 50 31 11 357 276 96 80 298 155 248 265 277 281 280 289 288 291 292 292 292 295 296 298 299 302 304 304 303 304 302 302 304 305 306
201 206 197 200 188 201 211 216 213 216 220 215 226 229 242 223 183 200 199 190 203 207 214 235 244 299 297 266 271 266 259 264 263 277 322 309 243 273 323 334 287 250 27 346 342 311 53 22 60 40 67 10 42 6 336 315 59 68 308 271 212 258 256 279 287 290 293 293 297 299 299 298 301 302 305 305 305 305 307 311 312 311 311 314 321
206 209 208 198 199 196 204 216 219 217 213 215 222 220 220 238 208 219 213 209 217 198 228 240 245 244 243 274 266 256 280 253 257 252 237 215 250 306 326 301 288 330 173 34 316 293 131 70 106 103 36 3 356 1 340 325 98 103 312 298 201 204 236 264 278 290 294 298 301 302 301 304 309 309 308 310 312 317 322 323 319 317 319 329 337
213 206 213 210 207 203 204 215 213 214 210 212 214 214 219 226 236 222 243 208 216 225 217 231 240 239 252 254 282 288 272 281 275 272 298 316 327 341 328 314 336 322 346 288 179 360 343 93 308 108 53 342 339 331 341 330 91 123 283 262 319 157 215 219 273 291 299 304 303 301 304 303 305 308 311 315 319 328 330 326 326 330 336 342 350
209 210 203 209 207 211 210 215 218 216 214 215 219 216 206 223 226 230 234 225 218 225 236 240 241 236 247 255 266 275 266 260 265 283 283 318 341 310 295 297 326 326 331 332 325 94 189 297 133 85 29 349 330 309 338 276 53 356 253 282 326 278 155 226 293 303 300 301 301 306 309 308 302 306 314 323 329 328 332 338 342 348 357 10 13
216 208 211 205 211 213 216 220 211 221 219 216 219 221 216 221 222 230 240 244 226 229 242 241 258 257 232 216 238 253 266 272 273 260 285 306 286 288 284 307 328 302 309 320 314 321 344 339 316 130 17 328 311 317 290 295 65 353 328 312 315 300 80 330 298 292 290 290 305 311 313 309 312 314 331 335 334 335 343 354 11 29 33 25 21
217 221 210 209 210 212 220 221 221 218 224 221 216 220 220 227 228 231 237 248 248 240 241 250 246 249 260 250 220 236 221 239 237 243 224 245 261 260 267 273 279 286 304 302 311 299 311 304 302 34 124 314 288 281 308 299 114 295 324 312 308 338 348 288 275 259 262 290 312 315 313 322 329 338 346 347 358 356 20 52 61 52 41 26 23
211 216 212 214 213 209 216 220 215 219 217 224 221 222 221 229 228 227 223 226 236 240 241 240 249 248 253 254 249 253 255 259 269 258 235 233 248 263 276 273 266 271 282 289 288 293 313 299 303 330 321 305 316 321 307 307 153 293 306 316 305 345 292 266 237 215 210 215 326 311 335 330 339 349 354 24 29 76 83 81 77 66 44 29 18
210 205 213 220 216 217 212 218 222 214 215 219 219 216 222 229 231 232 219 214 227 236 246 243 241 232 229 239 238 246 245 245 246 251 244 243 253 253 250 256 255 261 266 270 279 289 296 300 313 306 299 329 318 293 305 299 161 178 307 302 309 278 268 317 177 180 151 133 126 62 342 1 9 6 36 66 99 103 102 95 84 69 50 24 10
215 211 212 217 221 219 223 222 223 218 214 218 216 218 220 224 227 235 245 230 227 233 234 245 250 241 240 244 245 240 243 251 251 252 251 238 238 248 246 246 250 247 246 260 273 283 287 300 300 295 316 315 305 315 297 298 308 327 318 301 310 306 313 313 6 144 141 124 127 130 135 95 54 70 108 108 111 111 107 92 77 66 46 21 5
214 218 215 216 214 218 221 220 221 221 211 212 219 218 221 224 228 226 224 229 232 237 244 240 234 244 238 238 243 242 232 240 251 252 247 248 241 240 230 236 255 252 236 260 268 279 287 289 289 303 300 293 289 297 310 309 313 314 308 312 296 305 309 316 313 128 134 121 134 153 135 142 144 141 133 130 117 106 93 78 74 59 41 15 360
210 219 218 220 218 215 221 222 216 218 214 214 219 224 223 224 229 238 233 225 228 234 231 231 237 236 238 239 241 241 240 233 234 246 252 252 257 263 266 260 253 253 244 240 260 269 281 288 293 286 285 302 298 304 299 296 302 295 297 298 307 308 310 305 302 333 132 128 145 151 154 151 152 146 137 130 120 110 96 86 75 58 36 11 356
215 211 220 222 217 215 218 218 216 217 213 216 219 219 220 223 228 230 237 237 233 232 236 239 233 231 238 239 244 248 250 246 243 253 254 249 245 242 245 240 245 253 257 246 240 259 272 280 281 283 293 296 292 290 290 286 286 297 292 298 289 283 302 302 292 296 125 136 149 160 157 149 148 143 136 128 122 112 100 92 78 68 38 7 9
220 214 210 216 218 214 217 217 216 215 216 216 219 224 222 222 224 229 231 230 231 234 237 238 242 243 242 244 246 244 242 247 243 241 243 235 238 243 238 238 241 242 241 241 242 243 255 265 274 272 279 276 278 281 279 286 289 284 284 281 284 289 285 294 297 311 153 135 150 158 157 152 150 145 141 136 130 128 122 118 126 129 123 28 24
215 218 212 210 212 213 217 220 219 218 217 217 217 221 225 224 222 226 226 228 230 232 234 234 235 236 239 239 240 242 246 247 251 250 249 247 240 239 244 245 239 236 238 237 238 242 249 258 266 275 266 269 275 275 277 271 276 291 293 286 275 270 267 283 310 317 326 155 172 152 145 156 153 145 149 146 145 150 162 165 171 170 62 36 21
213 214 213 212 212 215 215 218 221 219 219 219 218 218 224 227 228 226 230 227 229 232 234 237 238 235 236 238 237 236 239 242 246 246 240 238 242 245 240 240 239 238 236 237 234 237 243 251 257 262 270 266 261 269 263 253 259 269 279 287 285 288 283 286 284 305 307 322 159 109 63 146 143 161 154 161 159 171 177 178 171 156 86 39 14
216 216 218 213 211 215 217 218 219 219 217 218 216 219 221 223 223 225 226 232 233 233 237 238 240 242 240 240 242 236 232 232 237 241 243 243 242 244 239 235 237 237 241 244 238 239 242 248 256 265 270 279 274 270 270 253 255 254 248 265 284 295 297 287 279 282 300 290 306 178 131 126 141 129 156 176 179 175 191 185 171 137 109 51 356
218 221 221 222 217 216 218 218 219 219 220 220 219 216 217 218 224 227 226 229 232 237 239 241 238 239 244 247 246 244 236 228 227 238 255 274 250 243 241 240 239 237 242 246 244 244 245 251 259 260 260 260 265 270 268 263 261 271 284 287 283 282 282 290 289 276 264 289 287 316 305 287 185 178 183 188 186 186 194 233 148 134 107 57 359
222 223 225 224 227 222 219 219 219 220 222 225 216 211 214 220 219 228 229 231 235 238 238 239 243 241 241 246 251 246 235 221 206 209 221 235 248 259 260 243 235 239 241 243 244 242 244 250 252 255 258 258 259 258 269 271 273 264 263 264 278 292 295 288 285 271 261 265 303 313 297 279 290 266 222 258 152 191 216 207 92 59 87 65 3
223 221 223 225 226 228 224 223 222 223 226 226 210 196 204 214 225 227 230 233 231 234 236 237 242 246 246 245 248 234 212 210 212 209 214 218 223 231 246 258 272 269 248 242 242 243 247 247 248 252 257 263 263 271 274 277 274 278 287 285 283 287 289 295 291 295 227 227 270 293 284 287 279 261 249 256 241 185 233 115 125 134 150 160 243
222 225 225 226 228 230 230 229 229 229 231 226 204 195 200 205 212 227 234 235 236 235 236 239 239 241 244 245 243 243 230 223 227 213 213 218 221 226 231 236 240 248 256 265 265 252 245 250 252 255 263 261 265 260 263 272 282 278 277 283 278 280 281 279 284 286 322 181 282 285 288 279 247 259 265 249 233 225 109 121 142 140 164 174 194
230 227 230 230 228 229 234 234 235 235 237 222 203 198 200 203 207 217 236 241 242 242 240 239 240 240 242 242 246 246 245 202 211 226 222 212 215 222 225 229 236 237 240 244 249 257 271 265 258 257 252 261 262 259 260 269 279 273 277 269 268 271 274 277 280 285 288 290 281 280 288 293 281 263 270 262 193 181 130 150 154 163 182 188 205
225 228 230 231 231 230 231 232 236 241 240 232 202 199 200 202 203 204 231 237 242 245 246 245 242 239 235 238 237 236 239 233 223 222 224 228 216 207 216 224 230 228 226 231 235 239 242 252 258 256 252 249 254 259 261 260 256 260 266 273 278 276 276 280 293 288 282 273 265 287 288 281 271 287 289 286 182 174 188 144 163 173 188 193 194
226 227 232 234 232 231 231 230 233 236 237 232 209 200 201 201 200 198 225 234 240 242 243 242 244 245 242 235 235 237 237 233 229 220 223 222 225 226 221 221 223 229 225 221 220 223 224 231 238 246 251 252 254 256 258 254 254 254 261 273 282 285 285 286 276 267 266 238 246 269 281 291 297 287 282 293 170 211 146 139 166 173 188 192 205
234 232 229 235 240 237 233 234 236 237 241 223 209 201 200 202 191 199 218 228 236 242 242 241 241 239 238 238 236 236 236 237 225 208 215 227 227 228 231 233 234 232 232 225 213 213 219 221 226 235 241 243 245 259 283 292 271 264 265 260 254 256 262 266 272 277 274 263 207 230 266 277 293 295 295 296 176 234 166 187 163 178 185 201 197
238 238 239 237 236 241 243 239 237 241 243 226 204 202 198 194 180 208 216 225 231 235 240 240 239 239 237 234 233 236 235 233 224 194 201 210 233 236 236 237 239 240 239 230 198 206 213 226 234 238 250 262 271 270 271 274 272 289 285 276 261 261 265 265 269 270 270 282 261 197 247 272 287 290 289 297 221 252 248 215 148 181 187 190 207
231 237 241 243 245 243 242 244 242 240 242 232 202 202 200 186 189 205 214 221 230 231 235 234 236 239 237 232 233 234 235 235 213 186 194 198 226 234 238 239 240 240 239 241 232 202 208 214 222 233 241 248 254 260 260 257 243 219 236 241 249 253 251 255 261 265 279 282 279 280 271 263 276 282 291 292 268 228 267 249 139 150 175 195 216
243 236 232 238 242 243 242 245 237 239 248 244 203 202 199 188 193 212 217 224 229 232 233 233 231 235 237 230 223 227 233 234 213 188 191 194 222 230 234 238 241 242 240 233 233 233 207 212 228 233 242 244 246 244 240 232 232 217 228 239 250 248 251 256 263 272 272 259 267 254 242 262 273 276 283 287 285 294 261 223 149 174 184 200 186